East Saint Louis, IL

6:49 PM CST on December 10, 2016 (GMT -0600)
Saint Louis Downtown

Weather History for KCPS - May, 2014

Change the Weather History Date:

Tuesday, May 6, 2014

  Actual Average Record
Temperature  
Mean Temperature 73 °F -  
Max Temperature 88 °F 70 °F 91 °F (2012)
Min Temperature 59 °F 52 °F 39 °F (1958)
Cooling Degree Days 8    
Growing Degree Days 23 (Base 50)    
Moisture  
Dew Point 58 °F    
Average Humidity 55    
Maximum Humidity 81    
Minimum Humidity 41    
Precipitation  
Precipitation 0.00 in - - ()
Sea Level Pressure  
Sea Level Pressure 29.74 in    
Wind  
Wind Speed 7 mph (SE)    
Max Wind Speed 22 mph    
Max Gust Speed 30 mph    
Visibility 10 miles    
Events      
Averages and records for this station are not official NWS values.
T = Trace of Precipitation, MM = Missing Value Source: NWS Daily Summary

Daily Weather History Graph

Daily Weather History Graph

Search for Another Location

Airport or City:

Trip Planner

Search our weather history database for the weather conditions in past years. The results will help you decide how hot, cold, wet, or windy it might be!

Date:

Astronomy

May. 06, 2014 Rise Set
Actual Time 5:57 AM CDT 7:57 PM CDT
Civil Twilight 5:28 AM CDT 8:26 PM CDT
Nautical Twilight 4:53 AM CDT 9:01 PM CDT
Astronomical Twilight 4:15 AM CDT 9:40 PM CDT
Moon 12:12 PM CDT (5/6) 1:17 AM CDT (5/6)
Length of Visible Light 14h 57m
Length of Day
13h 59m
Waxing Crescent, 46% of the Moon is Illuminated
May 6
Waxing Crescent
May 6
First Quarter
May 14
Full
May 21
Last Quarter
May 28
New

Hourly Weather History & Observations

Time (CDT) Temp. Heat Index Dew Point Humidity Pressure Visibility Wind Dir Wind Speed Gust Speed Precip Events Conditions
12:53 AM 64.9 °F - 57.0 °F 75% 29.75 in 10.0 mi Calm Calm - N/A   Clear
1:53 AM 63.0 °F - 55.9 °F 78% 29.74 in 10.0 mi North 3.5 mph - N/A   Clear
6:53 AM 59.0 °F - 53.1 °F 81% 29.81 in 10.0 mi NE 5.8 mph - N/A   Clear
7:53 AM 62.1 °F - 53.1 °F 72% 29.81 in 10.0 mi NE 8.1 mph - N/A   Clear
9:53 AM 69.1 °F - 55.9 °F 63% 29.81 in 10.0 mi ENE 6.9 mph - N/A   Clear
10:53 AM 73.0 °F - 57.0 °F 57% 29.81 in 10.0 mi Variable 6.9 mph - N/A   Clear
11:53 AM 78.1 °F - 59.0 °F 52% 29.79 in 10.0 mi Variable 5.8 mph - N/A   Clear
12:53 PM 82.0 °F 82.7 °F 61.0 °F 49% 29.76 in 10.0 mi SE 8.1 mph 16.1 mph N/A   Clear
1:53 PM 84.0 °F 84.4 °F 61.0 °F 46% 29.74 in 10.0 mi ESE 11.5 mph - N/A   Clear
2:53 PM 86.0 °F 86.1 °F 61.0 °F 43% 29.72 in 10.0 mi SE 13.8 mph - N/A   Clear
3:53 PM 87.1 °F 87.5 °F 62.1 °F 43% 29.69 in 10.0 mi SE 18.4 mph 27.6 mph N/A   Clear
4:53 PM 86.0 °F 85.7 °F 60.1 °F 41% 29.68 in 10.0 mi SE 21.9 mph 29.9 mph N/A   Clear
5:53 PM 84.0 °F 83.8 °F 59.0 °F 43% 29.68 in 10.0 mi SSE 16.1 mph 27.6 mph N/A   Clear
6:53 PM 82.9 °F 83.3 °F 61.0 °F 47% 29.69 in 10.0 mi SSE 9.2 mph - N/A   Clear
7:53 PM 79.0 °F - 61.0 °F 54% 29.69 in 10.0 mi SSE 9.2 mph - N/A   Clear
8:53 PM 75.9 °F - 57.9 °F 54% 29.69 in 10.0 mi SSE 9.2 mph - N/A   Clear
9:53 PM 75.0 °F - 54.0 °F 48% 29.72 in 10.0 mi SSE 8.1 mph - N/A   Clear
10:53 PM 73.0 °F - 54.0 °F 51% 29.72 in 10.0 mi South 6.9 mph - N/A   Clear
11:53 PM 72.0 °F - 54.0 °F 53% 29.72 in 10.0 mi South 6.9 mph - N/A   Clear